www.pogodaiklimat.ru

Погода и климат >> Архив погоды >> Кука Острова >> Rarotonga


ПОГОДА в Rarotonga

  • Прогноз погоды в Rarotonga
  • Монитор погоды в Rarotonga
  • Климат города

АРХИВ ПОГОДЫ в Rarotonga

Время (UTC), дата Ветер
(напр.,м/с)
 
Видим.   Явления Облачность Т
(С)
Тd
(С)
f
(%)
Тe
(С)
Тes
(С)
Комфортность P
(гПа)
Po
(гПа)
Тmin
(С)
Tmax
(С)
R
(мм)
R24
(мм)
S
(см)
12 14.09 ЮВ 2 20 км 4/4 540 м
[Cu med, cong]
+22.4 +20.6 90 +29 +29 очень
душно
1016.8 1017.0 +29.2
15 14.09 В 2 20 км осадки на расстоянии {ливн. осадки} 6/6 540 м
[Cu Sc]
+22.4 +21.0 92 +29 +29 очень
душно
1015.7 1016.0
18 14.09 В 2 50 км {ливн. осадки} 4/4 480 м
[Cu med, cong]
+22.9 +21.4 91 +30 +32 очень
душно
1017.2 1017.0 0.0
21 14.09 СВ 3 50 км 3/3 480 м
[Cu hum]
+26.5 +21.9 76 +34 +43 очень
душно
1017.7 1018.0
00 15.09 С 3 50 км 3/3 600 м
[Cu hum]
+29.0 +22.4 68 +38 +49 очень
душно
1016.0 1016.0 +21.4
03 15.09 З 3 50 км 4/4 600 м
[Cu med, cong]
+26.5 +21.3 73 +34 +35 очень
душно
1015.8 1016.0
06 15.09 Ю 4 20 км слабая морось 9/9 480 м
[Cu Sc]
+23.0 +20.2 84 +30 +30 очень
душно
1017.1 1017.0 0.0
09 15.09 Ю 5 20 км {морось} 8/8 480 м
[Cu med, cong]
+22.6 +19.3 82 +29 +29 очень
душно
1017.7 1018.0
12 15.09 ЮЗ 1 20 км осадки на расстоянии {морось} 6/6 480 м
[Cu med, cong]
+22.1 +18.8 82 +27 +27 душно 1016.6 1017.0 +29.1
15 15.09 Ю 4 20 км 5/5 480 м
[Cu Sc]
+21.6 +18.3 82 +26 +26 душно 1015.9 1016.0
18 15.09 Ю 4 50 км 3/3 600 м
[Cu med, cong]
+21.8 +16.2 70 +26 +27 душно 1018.3 1018.0
21 15.09 Ю 3 50 км 3/3 660 м
[Cu hum]
+23.8 +15.8 61 +27 +37 жарко 1018.8 1019.0
00 16.09 ЮВ 8 50 км 1/1 600 м
[Cu hum]
+24.4 +15.2 56 +27 +30 жарко 1016.3 1016.0 +21.0
03 16.09 ЮВ 6 50 км 1/1 750 м
[Cu hum]
+23.5 +14.4 57 +26 +27 жарко 1016.4 1016.0
06 16.09 ЮВ 4 20 км 3/3 750 м
[Cu hum]
+21.0 +13.2 61 +24 +24 комфорт 1018.8 1019.0
09 16.09 ЮВ 3 20 км 3/3 700 м
[Cu hum]
+19.0 +14.9 77 +20 +20 1019.6 1020.0
12 16.09 ЮВ 2 20 км ясно +19.0 +13.9 72 +21 +21 комфорт 1018.8 1019.0 +25.1
15 16.09 ЮВ 2 20 км 3/3 900 м
[Cu Sc]
+18.0 +14.2 78 +19 +19 1018.0 1018.0
18 16.09 ЮВ 6 50 км 4/4 750 м
[Cu hum]
+21.4 +12.9 58 +24 +24 комфорт 1019.7 1020.0
21 16.09 В 5 50 км 4/4 750 м
[Cu hum]
+25.0 +13.9 50 +27 +33 жарко 1020.0 1020.0
00 17.09 В 5 20 км 8/8 600 м
[Cu Sc]
+24.5 +13.9 52 +27 +29 жарко 1018.5 1019.0 +17.1
03 17.09 В 4 50 км 4/1 750 м
[Cu hum Cs]
+23.9 +13.9 54 +26 +28 жарко 1017.6 1018.0
06 17.09 ЮВ 3 50 км 4/4 540 м
[Cu med, cong]
+21.0 +14.2 65 +24 +24 комфорт 1019.3 1019.0
09 17.09 ЮВ 2 20 км 5/5 480 м
[Cu med, cong]
+21.1 +14.3 65 +24 +24 комфорт 1019.8 1020.0
12 17.09 ЮВ 4 20 км {морось} 1/1 630 м
[Cu hum]
+20.0 +14.9 72 +22 +22 комфорт 1018.5 1019.0 +25.5
15 17.09 ЮВ 5 20 км 1/1 750 м
[Cu hum]
+20.6 +14.9 70 +23 +23 комфорт 1017.8 1018.0
18 17.09 В 5 50 км 3/3 700 м
[Cu hum Ci fib]
+22.4 +15.1 63 +26 +27 жарко 1019.0 1019.0
21 17.09 В 4 50 км 6/6 750 м
[Cu Sc]
+25.1 +15.2 54 +28 +32 жарко 1019.5 1020.0
00 18.09 В 5 50 км 6/6 600 м
[Cu Sc]
+24.5 +15.5 57 +27 +31 жарко 1017.4 1017.0 +19.0
03 18.09 В 5 20 км 6/6 750 м
[Cu Sc]
+23.3 +15.6 62 +28 +28 душно 1017.0 1017.0
09 18.09 В 4 20 км 5/5 480 м
[Cu med, cong]
+21.1 +14.9 68 +24 +24 комфорт 1018.1 1018.0
12 18.09 ЮВ 4 20 км ясно +20.3 +16.7 80 +24 +24 комфорт 1016.7 1017.0 +26.3
15 18.09 ЮВ 2 20 км ясно +19.0 +12.6 66 +21 +21 комфорт 1016.1 1016.0
18 18.09 В 4 50 км 3/3 700 м
[Cu hum]
+22.4 +17.1 72 +27 +28 душно 1017.1 1017.0
21 18.09 СВ 5 50 км 3/3 660 м
[Cu Sc]
+25.0 +17.0 61 +29 +35 душно 1016.9 1017.0
00 19.09 В 5 50 км 5/3 600 м
[Cu med, cong Ac trans]
+25.4 +17.8 63 +30 +35 душно 1015.0 1015.0 +17.5
03 19.09 В 4 50 км 8/1 630 м
[Cu hum Ac trans]
+24.3 +17.5 66 +28 +30 душно 1014.0 1014.0
06 19.09 ЮВ 3 20 км 8/4 480 м
[Cu med, cong Ac trans]
+21.6 +17.4 77 +26 +26 душно 1014.8 1015.0
09 19.09 В 3 20 км 8/5 480 м
[Cu med, cong Ac trans]
+22.5 +18.4 78 +28 +28 душно 1014.9 1015.0
12 19.09 ЮВ 2 20 км {ливн. осадки} 9/4 540 м
[Cu med, cong As op]
+21.9 +19.4 86 +27 +27 душно 1013.1 1013.0 +26.1 0.1
15 19.09 В 2 20 км слабый ливневой дождь {морось} 9/3 540 м
[Cu med, cong As op]
+20.3 +17.9 86 +24 +24 комфорт 1013.0 1013.0
18 19.09 СВ 4 20 км слабый ливневой дождь 10/3 420 м
[Cu med, cong Ac trans]
+21.8 +19.9 89 +27 +28 душно 1013.5 1014.0 2
21 19.09 СВ 5 20 км слабый ливневой дождь 10/4 360 м
[Cu med, cong Ac As]
+20.5 +19.1 92 +25 +26 комфорт 1013.8 1014.0
00 20.09 СВ 4 10 км ливневой дождь {морось} 10/4 100 м
[Frnb Ac As]
+20.8 +19.6 93 +26 +28 душно 1012.3 1012.0 +19.7 13
03 20.09 СВ 4 20 км слабая морось 10/5 450 м
[Cu med, cong Ac As]
+21.2 +19.5 90 +26 +26 душно 1010.4 1010.0
06 20.09 СВ 9 20 км слабый ливневой дождь {морось} 10/5 300 м
[Cu med, cong Ac As]
+21.5 +20.0 91 +27 +27 душно 1010.9 1011.0 75
09 20.09 СВ 10 20 км осадки на расстоянии {ливн. осадки, морось} 10/8 300 м
[Cu Sc Ac As]
+23.0 +21.5 91 +31 +31 очень
душно
1011.0 1011.0
12 20.09 СЗ 9 20 км {ливн. осадки} 10/6 270 м
[Frnb As op]
+23.3 +22.7 96 +32 +32 очень
душно
1009.2 1009.0 +23.6 2
15 20.09 СЗ 8 20 км 10/6 360 м
[Cu Sc As op]
+24.4 +23.5 95 +33 +33 очень
душно
1008.3 1008.0
18 20.09 ЮЗ 6 20 км слабая морось {ливн. осадки} 5/5 450 м
[Cu med, cong Ci fib]
+22.6 +20.8 90 +30 +30 очень
душно
1011.3 1011.0 0.4
21 20.09 Ю 5 50 км {ливн. осадки} 4/3 300 м
[Cu med, cong Ci fib]
+24.5 +20.3 77 +30 +37 очень
душно
1013.0 1013.0
00 21.09 Ю 6 20 км слабый ливневой дождь {морось} 9/9 300 м
[Cu Sc]
+24.8 +19.6 73 +30 +31 душно 1011.9 1012.0 +19.2 0.0
03 21.09 ЮЗ 6 20 км {ливн. осадки} 4/4 630 м
[Cu med, cong]
+24.6 +17.3 64 +29 +29 душно 1012.0 1012.0
06 21.09 ЮЗ 4 20 км 10/4 700 м
[Cu med, cong]
+22.0 +17.0 73 +26 +26 душно 1013.6 1014.0
09 21.09 ЮЗ 4 20 км 5/5 540 м
[Cu med, cong]
+21.4 +15.8 70 +25 +25 комфорт 1014.7 1015.0

 

Местоположение метеостанции Rarotonga (Кука Острова): широта -21.20 долгота -159.80 высота над уровнем моря 7 м.

В архиве по умолчанию представлена погода в Rarotonga за последнюю неделю. Архивные данные за месяц целиком и за предыдущие месяцы, начиная с января 2011 года, Вы можете получить, выбрав интересующий диапазон дат из раскрывающегося списка и нажав кнопку "Ввод!".

Внимание! Время в таблицах - всемирное. Для получения местного времени необходимо прибавить поправку, которая в Rarotonga равна -10 ч.

Смотрите также архив погоды в соседних городах и на ближайших метеорологических станциях:

Погода в Aitutaki (Кука Острова) (264 км)
Погода в Bora-Bora Airport (Французская Полинезия) (1004 км)
Погода в Hanan Airport (Кука Острова) (1080 км)
Погода в Tubuai (Французская Полинезия) (1097 км)
Погода в Tahiti-Faaa (Французская Полинезия) (1144 км)
Погода в Manihiki (Кука Острова) (1205 км)
Погода в Penrhyn (Кука Острова) (1367 км)
Погода в Le Mafa (Самоа) (1487 км)
Погода в Lufi-Lufi (Самоа) (1488 км)
Погода в Togitogiga (Самоа) (1498 км)

Пояснения к столбцам:

Ветер - указаны скорость ветра в м/с - средняя за 10 мин, порывы в срок и между сроками (в фигурных скобках) и направление, откуда дует ветер: С - северный, СВ - северо-восточный, В - восточный, ЮВ - юго-восточный, Ю - южный, ЮЗ - юго-западный, З - западный, СЗ - северо-западный.
Видимость - горизонтальная дальность видимости в метрах или километрах. При видимости от 1 до 10 км при отсутствии осадков обычно наблюдается дымка, при ухудшении видимости до 1 км и менее - туман. В сухую погоду видимость может ухудшаться дымом, пылью или мглою.
Явления - указаны атмосферные явления, наблюдавшиеся в срок или в последний час перед сроком; фигурными скобками обозначены явления, наблюдавшиеся между сроками (за 1-3 часа до срока); квадратными скобками обозначены град или гололедные отложения с указанием их диаметра в мм.
Облачность - указаны через наклонную черту общая и нижняя облачность в баллах и высота нижней границы облаков в метрах; квадратными скобками обозначены формы облаков: Ci - перистые, Cs - перисто-слоистые, Cc - перисто-кучевые, Ac - высококучевые, As - высокослоистые, Sc - слоисто-кучевые, Ns - слоисто-дождевые, Cu - кучевые, Cb - кучево-дождевые. Подробнее классификацию облаков см. в Атласе облаков (PDF).
T - Температура воздуха - температура, измеренная на высоте 2 м над землей.
Td - Температура точки росы - температура, при понижении до которой содержащийся в воздухе водяной пар достигнет насыщения.
f - Относительная влажность воздуха - влажноcть воздуха, измеренная на высоте 2 м над землей.
Te - Эффективная температура - температура, которую ощущает одетый по сезону человек в тени. Характеристика душности погоды. При расчете учитывается влияние влажности воздуха и скорости ветра на теплоощущения человека.
Tes - Эффективная температура на солнце - температура, которую ощущает человек, с поправкой на солнечный нагрев. Характеристика знойности погоды. Зависит от высоты солнца над горизонтом, облачности и скорости ветра. Ночью, в пасмурную погоду, а также при ветре 12 м/с и более поправка равна нулю.
P - Атмосферное давление - приведенное к уровню моря атмосферное давление.
Po - Атмосферное давление - измеренное на уровне метеостанции атмосферное давление.
Tmin - Минимальная температура - минимум температуры воздуха на высоте 2 м над землей.
Tmax - Максимальная температура - максимум температуры воздуха на высоте 2 м над землей.
R - Количество осадков - Количество выпавших осадков за период времени, мм. При наведении курсора мыши на число - период времени, за который выпало указанное количество осадков.
R24 - Количество осадков - Количество выпавших осадков за 24 часа, мм.
S - Снежный покров - Высота снежного покрова, см. При наведении курсора мыши на число - состояние снежного покрова и степень покрытия местности в баллах.